星链-6096 (STARLINK-6096 )

导读

STARLINK-6096是美国SpaceX星链星座的卫星成员,于2023年3月29日发射入轨,星链系统旨在为全球提供高速低延迟互联网覆盖,这类低轨卫星依托大规模星座组网,可服务偏远地区网络接入,助力全球互联,该卫星发射进一步扩充了星链星座的在轨规模。

Basic Information
目录编号:
56103
目录名称:
STARLINK-6096
国际标识:
2023-046L
轨道中心:
EARTH
卫星名称:
星链-6096
卫星全名:
星链-6096 (STARLINK-6096 )
卫星状态:
在轨 (已飞行1263 天)
发射日期:
2023-03-29 UTC
国别 :
美国 (US)
星等 :
--
This satellite is enrolled in the Space Conjunction Data Service (SCDS) and the current flight risk assessment level is: No High Risk
Orbit Information
数据来源 国际轨道数据 AOE轨道数据
星历时间 2026-09-12T12:05:10+0800
11小时前
查看轨道信息
2026-09-10T23:00:00+0800
2天前
查看轨道信息
半长轴 6861.2km 6861.201km
偏心率 0.0000953 0.0000021
轨道倾角 43.001° 42.995°
近地点辐角 253.382° 97.978°
升交点赤经 188.214° 196.947°
平近点角 106.693° 34.351°
近地点 482.409km 483.049km
远地点 483.717km 483.079km
周期 94.267分钟 94.267分钟
每日圈数 15.275755 15.275752
Detailed Information
固有亮度:
5
最大亮度:
2.5
卫星平台:
Starlink v1.5
覆盖范围:
全球
运营商:
太空探索技术公司
运营商所在国:
美国
制造商(研发单位):
太空探索技术公司
制造商所在国:
美国
使用方式:
暂无
Satellite Introduction
星链(Starlink)计划是由太空探索技术公司(SpaceX)提出的一个巨型低轨卫星互联网星座项目,计划在2019年至2024年间在太空搭建由约1.2万颗卫星组成的“星链”网络,其中1584颗将部署在地球上空550千米处的近地轨道,并从2020年开始工作。该卫星仍在工作。
2D Orbit Map
3D Orbit Map
Orbit Altitude Analysis Chart
Orbit Inclination Analysis Chart
Orbit Comprehensive Analysis Chart
View Comprehensive Chart
Conjunction Data List
Event ID Objects TCA Miss Dist (km) Collision Risk Probability Collision Risk Index (CRI) Action
CDM_260914-121205-610306-390522
2026-09-14T
12:12:41+0000
0.116 km
中距离
6.990283E-4 高风险 0.92
CDM_260915-042205-610306-315121
2026-09-15T
04:22:21+0000
0.245 km
中距离
5.606883E-4 高风险 0.9
CDM_260914-220505-610306-312021
2026-09-14T
22:05:13+0000
0.867 km
远距离
3.349851E-5 中风险 0.66
CDM_260914-233905-610306-312021
2026-09-14T
23:39:22+0000
1.283 km
极远距离
8.688965E-6 低风险 0.54
CDM_260913-071605-610306-724824
OBJECT A (67248)
2026-09-13T
07:16:42+0000
1.706 km
极远距离
4.205008E-6 低风险 0.47
CDM_260914-125905-610306-390521
2026-09-14T
12:59:46+0000
1.212 km
极远距离
3.002972E-6 低风险 0.45
CDM_260915-024805-610306-315121
2026-09-15T
02:48:12+0000
2.065 km
极远距离
2.059355E-6 低风险 0.41
CDM_260913-164305-610305-742623
OBJECT C (57426)
2026-09-13T
16:43:26+0000
2.722 km
极远距离
1.455852E-6 低风险 0.38
CDM_260914-203105-610306-312021
2026-09-14T
20:31:03+0000
2.834 km
极远距离
1.151297E-6 低风险 0.36
CDM_260914-143305-610306-390522
2026-09-14T
14:33:55+0000
2.481 km
极远距离
5.042711E-7 极低风险 0.29
Miss Distance Evolution Trend with All Objects
Collision Probability Evolution Trend with All Objects